FENGYUN 1C DEB

Satellite information

Favourite Embed

Satellite Type and Status

DEBRISIN ORBIT

Key statistics

Satellite FENGYUN 1C DEB at a glance.

Uptime

9615

Days in orbit

Revolutions

≈ 14.0

Per day

Orbit

SSO

Sun Synchronous Orbit

Inclination

98.5

Latest

Satellite identification and parameters

Extended collection of information and parameters for FENGYUN 1C DEB.

Object identification

Identified? True

Debris? True

Object name: FENGYUN 1C DEB

International designator: 1999-025EFY

Object number (NORAD): 37406

Object ID (CCSDS): 37406

Country: PEOPLES REPUBLIC OF CHINA (PRC)

Current information (Y/N): Y

RCS size: SMALL

Orbital parameters

Period: 102.581 minutes

Inclination: 98.4542 deg

SMA: 7258.923 km

Apoapsis: 988.801 km

Periapsis: 772.776 km

RAAN: 119.5162 deg

Eccentricy: 0.0148799

Argument of periapsis: 208.0489 deg

Mean anomaly: 168.1944 deg

Mean motion: 14.03765088 rev/day

Mean motion (dot): 0.00001405 rev/day2

B* drag term: 0.00083200413 1/REarth

Two-line elements (TLE)

Creation date: Aug. 28, 2025, 2:53 a.m.

Reference frame: TEME

Reference center: EARTH

Epoch: Aug. 27, 2025, 10:46 p.m. UTC

TLE line 0: 0 FENGYUN 1C DEB

TLE line 1: 1 37406U 99025EFY 25239.94865287 .00001405 00000-0 83200-3 0 9991

TLE line 2: 2 37406 98.4542 119.5162 0148799 208.0489 168.1944 14.03765088617344

Live tracking on map

Real-time ground track for satellite FENGYUN 1C DEB.

In-orbit conjunctions

A list of the most updated potential collisions computed for object FENGYUN 1C DEB.

Target Orbit TCA Probability of collision Miss distance Type
SL-6 R/B SSO 2025-05-18 14:48:42 0.0001347193 352.0 (m) ROCKET BODY

Associated space launch

Chinese polar orbiting meteorological satellite

FENGYUN 1C DEB was lifted into orbit during the mission ‘Long March 4B | Feng Yun 1C’, on board a Long March 4B space rocket.

The launch took place on May 10, 1999, 1:33 a.m. from Launch Complex 7.

For more information about the launch, click the button.

Launch to space Long March 4B | Feng Yun 1C
Long March 4B | Feng Yun 1C

Agency: N/A

Status: Launch Successful

Launch date: May 10, 1999, 1:33 a.m. UTC

Rocket: Long March 4B

Launch pad: Launch Complex 7

Location: Taiyuan Satellite Launch Center, People's Republic of China

...

Latest news about this satellite

There are no fresh news available about this satellite. Check back as we update our databases every day.


Newsletter sign-up

Weekly statistics, charts and insights to help you stay on top of the space industry.